Regional Weather Roundup
Issued by NWS Newport/Morehead, NC

Current Version | Previous Version | Text Only | Print | Product List | Glossary Off
Versions: 1 2 3 4 5 6 7 8 9 10 11 12 13 14 15 16 17 18 19 20 21 22 23 24 25 26 27 28 29 30 31 32 33 34 35 36 37 38 39 40 41 42 43 44 45 46 47 48 49 50
000 ASUS42 KMHX 261010 RWRMHX WEATHER ROUNDUP FOR EASTERN NORTH CAROLINA NATIONAL WEATHER SERVICE NEWPORT/MOREHEAD CITY NC 500 AM EST MON JAN 26 2015 NOTE: "FAIR" INDICATES FEW OR NO CLOUDS BELOW 12,000 FEET WITH NO SIGNIFICANT WEATHER AND/OR OBSTRUCTIONS TO VISIBILITY NCZ015>017-031-032-045>047-102-103-261100- NORTH COAST CITY SKY/WX TMP DP RH WIND PRES REMARKS EDENTON MOCLDY 38 37 96 CALM 29.74F ELIZABETH CITY CLOUDY 41 38 89 CALM 29.74F KITTY HAWK CLOUDY 45 42 89 E6 29.73F MANTEO CLOUDY 45 39 81 NE7 29.74F $$ NCZ045>047-081-094-103-104-261100- CENTRAL COAST CITY SKY/WX TMP DP RH WIND PRES REMARKS FRISCO MOCLDY 48 44 86 NE3 29.73F SWANQUARTER NOT AVBL $$ NCZ095-097-098-100-101-261100- SOUTHERN COAST CITY SKY/WX TMP DP RH WIND PRES REMARKS BEAUFORT CLOUDY 40 40 100 CALM 29.73F CEDAR ISLAND NOT AVBL JACKSONVILLE PTCLDY 38 36 92 CALM 29.71F PINEY ISLAND N/A N/A N/A N/A MISG 29.73F WILMINGTON PTCLDY 39 38 96 CALM 29.70F FOG $$ NCZ011>013-027>030-043-044-078>080-089-090>093-098-261100- COASTAL PLAIN CITY SKY/WX TMP DP RH WIND PRES REMARKS AHOSKIE MOCLDY 36 34 94 CALM 29.73F CLINTON CLOUDY 40 40 97 CALM 29.71F ELIZABETHTOWN CLOUDY 41 40 97 CALM 29.70F GOLDSBORO CLOUDY 39 39 99 E2 29.69F GREENVILLE MOCLDY 37 36 93 CALM 29.75F HAVELOCK CLOUDY 38 36 92 CALM 29.74F KENANSVILLE MOCLDY 37 37 100 CALM 29.72F KINSTON MOCLDY 40 38 93 CALM 29.72F NEW BERN PTCLDY 38 34 85 CALM 29.73F RICHLANDS PTCLDY 36 30 80 CALM 29.72F ROCKY MOUNT CLOUDY 39 36 89 VRB3 29.72F WASHINGTON MOCLDY 37 35 94 CALM 29.73F WHITEVILLE CLOUDY 44 40 88 CALM 29.69F $$ AMZ130-135-150-152-154-156-158-170-250-252-270-ANZ085-086-088-633-658-670-261100- MARINE OBSERVATIONS STATION/POSITION TIME TEMP WIND PRES WAVE SWELL AIR SEA DIR/SP/G HT/PER HT/PER (UTC) (F) (DEG/KT/KT) (MB) (FT/S) (FT/S) CHESAPEAKE LIGHT 0900 45 100/ 13/ 13 1009.1 64 E VA BEACH 1000 51 52 50/ 6/ 6 1008.0 3/ 8 3/ 8 DUCK 1000 45 44 80/ 10/ 11 1006.4 2 E DUCK 1000 43 N/A 2/ 8 10 NE DUCK 1000 44 N/A 2/ 8 OREGON INLET 1000 46 46 40/ 6/ 9 1006.8 13E OREGON INLT 1000 46 N/A 3/ 8 2/11 HATTERAS CG 1000 49 53 90/ 1/ 3 1007.1 DIAMOND BUOY 1000 62 69 240/ 10/ 12 1006.3 4/ 8 3/ 8 17 S OCRACOKE NOT AVBL CAPE LOOKOUT 0900 52 280/ 8/ 9 1007.3 BEAUFORT LAB 1000 47 51 CALM / 1 1005.8 27 SE WRIGHTSVLE NOT AVBL 5 SE WRIGHTSVLE 0900 54 51 210/ 8/ 10 1006.7 225 S CAPE HAT 0932 69 72 240/ 17/ 21 1009.6 5/ 5 2/15 41 SE CHARLESTON 1000 61 69 260/ 25/ 29 1005.6 8/ 7 2/11 $$

USA.gov is the U.S. government's official web portal to all federal, state and local government web resources and services.